Regional Weather Roundup
Issued by NWS Midland/Odessa, TX

Skip options and go directly to product.
Home | Oldest Version | Previous Version | Current Version | All | Text Only | Save Text | Print | Product List | Glossary On

Skip product version selection by date and time.   
136
ASUS44 KMAF 281310
RWRMAF
MIDLAND AREA WEATHER ROUNDUP
NATIONAL WEATHER SERVICE MIDLAND TX
800 AM CDT TUE JUN 28 2016

...IN SOUTHWEST TEXAS AND SOUTHEAST NEW MEXICO...

CITY           SKY/WX    TMP DP  RH WIND       PRES   REMARKS
ALPINE         CLOUDY    68  63  85 CALM      30.32R
ANDREWS        FAIR      73  61  67 CALM      30.23S
ARTESIA        CLOUDY    68  68 100 N7        30.27S
BIG SPRING     CLOUDY    73  61  66 CALM      30.21R
CARLSBAD       LGT RAIN  69  67  93 NE5       30.23S
DRYDEN           N/A     74  68  81 N6        30.15R
FORT STOCKTON  MOSUNNY   71  66  84 E6        30.20R
GUAD PASS      LGT RAIN  63  63 100 E20       30.33S VSB<1/4
HOBBS          MOSUNNY   66  64  94 N6        30.27S
MARFA          CLOUDY   N/A N/A N/A NE3       30.30R
MIDLAND AIRPK  CLOUDY    75  65  72 CALM      30.21S
MIDLAND INTL   CLOUDY    74  67  78 CALM      30.20S
ODESSA         CLOUDY    73  64  73 MISG      30.22S
PECOS          CLOUDY    73  68  83 E10       30.19R
PRESIDIO       NOT AVBL
SEMINOLE       CLOUDY    73  59  60 N5        30.25S
SNYDER           N/A     75  60  61 N7        30.20R
WINK           CLOUDY    72  68  87 CALM      30.19S
$$
...OTHER STATIONS IN TEXAS...

CITY           SKY/WX    TMP DP  RH WIND       PRES   REMARKS
ABILENE        SUNNY     75  69  81 CALM      30.15S
AMARILLO       SUNNY     72  59  63 W6        30.29R
AUSTIN         SUNNY     78  71  79 S3        30.06R
BROWNSVILLE    MOSUNNY   81  78  91 NW3       30.03R
CORPUS CHRISTI MOSUNNY   80  77  90 CALM      30.03R
DALLAS FTW     MOSUNNY   84  74  71 N5        30.07R
DEL RIO        SUNNY     76  70  82 E6        30.09R
EL PASO        MOSUNNY   73  62  68 N6        30.21R
HOUSTON INT    MOSUNNY   83  75  77 W6        30.03R
LUBBOCK        MOSUNNY   71  59  65 N10       30.26R
SAN ANGELO     PTSUNNY   73  71  93 SW3       30.15S
SAN ANTONIO    MOSUNNY   76  70  82 W5        30.08F
WACO           SUNNY     80  71  74 N6        30.06S
WICHITA FALLS  NOT AVBL
$$
...OTHER LOCATIONS IN NEW MEXICO...

CITY           SKY/WX    TMP DP  RH WIND       PRES   REMARKS
ALAMAGORDO     CLOUDY    66  59  77 CALM      30.25S
ALBUQUERQUE    MOSUNNY   71  56  58 E14       30.38R
CANNON AFB     SUNNY     67  64  91 NW8       30.33R
CLOVIS         SUNNY     64  59  82 NW8       30.33R
HOLLOMAN AFB   CLOUDY    69  60  73 W3        30.23R
ROSWELL        SUNNY     68  62  81 N6        30.28R
RUIDOSO          N/A     57  57 100 SE6       30.47R
SANTA FE       SUNNY     60  54  80 N3        30.45R
TRUTH OR CONSE SUNNY     71  56  58 N15       30.28R
TUCUMCARI      SUNNY     70  61  73 W6        30.31S
$$

USA.gov is the U.S. government's official web portal to all federal, state and local government web resources and services.